2022/10/20 13:10:00, 0.0,20.6
2022/10/20 13:20:00, 0.0,21.8
2022/10/20 13:30:00, 0.0,20.3
2022/10/20 13:40:00, 0.1,20.9
2022/10/20 13:50:00, 0.0,21.5
2022/10/20 14:00:00,---,20.6
2022/10/20 14:10:00,42.6,25.4
2022/10/20 14:20:00, 0.0,25.4
2022/10/20 14:30:00, 0.0,25.8
2022/10/20 14:40:00, 0.0,25.8
2022/10/20 14:50:00, 0.0,24.8
2022/10/20 15:00:00, 0.0,25.3
2022/10/20 15:10:00, 0.0,24.6
2022/10/20 15:20:00, 0.0,20.4
2022/10/20 15:30:00, 0.0,20.8
2022/10/20 15:40:00, 0.0,23.5
2022/10/20 15:50:00, 0.0,23.5
2022/10/20 16:00:00, 0.0,23.6
2022/10/20 16:10:00, 0.0,22.8
2022/10/20 16:20:00, 0.0,22.9
2022/10/20 16:30:00, 0.0,22.4
2022/10/20 16:40:00, 0.0,21.6
2022/10/20 16:50:00, 0.1,17.5
2022/10/20 17:00:00, 0.1,16.0
2022/10/20 17:10:00, 0.1,14.7
2022/10/20 17:20:00, 0.1,13.8
2022/10/20 17:30:00, 0.1,13.5
2022/10/20 17:40:00, 0.1,12.4
2022/10/20 17:50:00, 0.1,12.2
2022/10/20 18:00:00, 0.1,12.0
2022/10/20 18:10:00, 0.0,11.4
2022/10/20 18:20:00, 0.0,11.3
2022/10/20 18:30:00, 0.1,10.8
2022/10/20 18:40:00, 0.1,10.6
2022/10/20 18:50:00, 0.1,11.1
2022/10/20 19:00:00, 0.1,10.9
2022/10/20 19:10:00, 0.1,11.1
2022/10/20 19:20:00, 0.1,10.8
2022/10/20 19:30:00, 0.0,10.8
2022/10/20 19:40:00, 0.0,10.9
